Tracking 18852 objects as of 24-Nov-2017
HD Live streaming from Space Station
objects crossing your sky now

INTELSAT 507

Track INTELSAT 507 now!
INTELSAT 507 is classified as:


NORAD ID: 14421
Int'l Code: 1983-105A
Perigee: 35,933.0 km
Apogee: 35,982.9 km
Inclination: 15.1 °
Period: 1,444.5 minutes
Semi major axis: 42328 km
RCS: 6.3095 m2 (large)
Launch date: October 19, 1983
Source: International Telecommunications Satellite Organization (ITSO)
Launch site: FRENCH GUIANA (FRGUI)
aabbcc
Your satellite tracking list
Your tracking list is empty




NASA's NSSDC Master Catalog

Two Line Element Set (TLE):
1 14421U 83105A   17327.68780972  .00000070  00000-0  00000+0 0  9992
2 14421  15.0843 357.5805 0005890 303.3961  73.4451  0.99688795106153
Source of the keplerian elements: AFSPC